Time,TemperatureF,DewpointF,PressureIn,WindDirection,WindDirectionDegrees,WindSpeedMPH,WindSpeedGustMPH,Humidity,HourlyPrecipIn,Conditions,Clouds,dailyrainin,SoftwareType,DateUTC
2013-03-28 00:02:00,28.9,20.0,30.09,ENE,67,0.0,0.0,71,0.00,,,0.00,TxWx,2013-03-28 05:02:00,
2013-03-28 00:11:00,28.7,20.0,30.09,ENE,67,0.0,0.0,71,0.00,,,0.00,TxWx,2013-03-28 05:11:00,
2013-03-28 00:16:00,28.6,20.0,30.09,ENE,68,0.0,0.0,71,0.00,,,0.00,TxWx,2013-03-28 05:16:00,
2013-03-28 00:21:00,28.6,20.0,30.09,ENE,68,0.0,0.0,71,0.00,,,0.00,TxWx,2013-03-28 05:21:00,
2013-03-28 00:26:00,28.6,20.0,30.10,ENE,67,0.0,0.0,71,0.00,,,0.00,TxWx,2013-03-28 05:26:00,
2013-03-28 00:31:00,28.5,19.0,30.09,ENE,60,0.0,0.0,72,0.00,,,0.00,TxWx,2013-03-28 05:31:00,
2013-03-28 00:41:00,28.3,19.0,30.10,WNW,283,0.0,0.0,72,0.00,,,0.00,TxWx,2013-03-28 05:41:00,
2013-03-28 00:46:00,28.3,19.0,30.09,South,170,0.0,0.0,73,0.00,,,0.00,TxWx,2013-03-28 05:46:00,
2013-03-28 00:56:00,28.3,20.0,30.09,WSW,244,0.0,0.0,74,0.00,,,0.00,TxWx,2013-03-28 05:56:00,
2013-03-28 01:02:00,28.3,19.0,30.09,SSW,200,0.0,0.0,73,0.00,,,0.00,TxWx,2013-03-28 06:02:00,
2013-03-28 01:07:00,28.2,19.0,30.10,South,186,0.0,0.0,73,0.00,,,0.00,TxWx,2013-03-28 06:07:00,
2013-03-28 01:16:00,28.7,20.0,30.10,NW,315,0.0,0.0,71,0.00,,,0.00,TxWx,2013-03-28 06:16:00,
2013-03-28 01:21:00,28.6,20.0,30.10,NW,317,0.0,0.0,72,0.00,,,0.00,TxWx,2013-03-28 06:21:00,
2013-03-28 01:27:00,28.4,19.0,30.10,NW,323,0.0,0.0,72,0.00,,,0.00,TxWx,2013-03-28 06:27:00,
2013-03-28 01:36:00,28.0,19.0,30.10,NW,320,0.0,0.0,73,0.00,,,0.00,TxWx,2013-03-28 06:36:00,
2013-03-28 01:41:00,28.0,19.0,30.10,NW,320,0.0,0.0,73,0.00,,,0.00,TxWx,2013-03-28 06:41:00,
2013-03-28 01:46:00,28.1,19.0,30.10,NW,321,0.0,0.0,73,0.00,,,0.00,TxWx,2013-03-28 06:46:00,
2013-03-28 01:51:00,28.2,19.0,30.10,NW,318,0.0,0.0,73,0.00,,,0.00,TxWx,2013-03-28 06:51:00,
2013-03-28 02:02:00,28.2,19.0,30.10,NW,317,0.0,0.0,73,0.00,,,0.00,TxWx,2013-03-28 07:02:00,
2013-03-28 02:11:00,28.1,19.0,30.10,NW,314,0.0,0.0,72,0.00,,,0.00,TxWx,2013-03-28 07:11:00,
2013-03-28 02:16:00,28.0,19.0,30.10,NW,314,0.0,0.0,73,0.00,,,0.00,TxWx,2013-03-28 07:16:00,
2013-03-28 02:21:00,27.8,19.0,30.10,ENE,69,0.0,0.0,73,0.00,,,0.00,TxWx,2013-03-28 07:21:00,
2013-03-28 02:26:00,28.0,19.0,30.10,ENE,69,0.0,0.0,73,0.00,,,0.00,TxWx,2013-03-28 07:26:00,
2013-03-28 02:35:00,28.5,19.0,30.09,WSW,244,0.0,0.0,72,0.00,,,0.00,TxWx,2013-03-28 07:35:00,
2013-03-28 02:40:00,28.7,20.0,30.10,NW,313,0.0,0.0,71,0.00,,,0.00,TxWx,2013-03-28 07:40:00,
2013-03-28 02:46:00,28.6,19.0,30.09,West,281,0.0,0.0,70,0.00,,,0.00,TxWx,2013-03-28 07:46:00,
2013-03-28 02:51:00,28.4,19.0,30.09,WSW,257,0.0,0.0,71,0.00,,,0.00,TxWx,2013-03-28 07:51:00,
2013-03-28 02:56:00,28.2,19.0,30.09,NW,313,0.0,0.0,71,0.00,,,0.00,TxWx,2013-03-28 07:56:00,
2013-03-28 03:01:00,28.0,19.0,30.10,WNW,285,0.0,0.0,72,0.00,,,0.00,TxWx,2013-03-28 08:01:00,
2013-03-28 03:07:00,27.8,19.0,30.10,West,275,0.0,0.0,73,0.00,,,0.00,TxWx,2013-03-28 08:07:00,
2013-03-28 03:12:00,28.2,19.0,30.09,NW,314,0.0,0.0,73,0.00,,,0.00,TxWx,2013-03-28 08:12:00,
2013-03-28 03:21:00,28.3,19.0,30.10,NW,313,0.0,0.0,71,0.00,,,0.00,TxWx,2013-03-28 08:21:00,
2013-03-28 03:26:00,28.2,19.0,30.10,NW,315,0.0,0.0,71,0.00,,,0.00,TxWx,2013-03-28 08:26:00,
2013-03-28 03:31:00,27.8,19.0,30.09,NW,314,0.0,0.0,72,0.00,,,0.00,TxWx,2013-03-28 08:31:00,
2013-03-28 03:36:00,27.5,18.0,30.10,WNW,293,0.0,0.0,73,0.00,,,0.00,TxWx,2013-03-28 08:36:00,
2013-03-28 03:41:00,27.6,20.0,30.10,ENE,69,0.0,0.0,74,0.00,,,0.00,TxWx,2013-03-28 08:41:00,
2013-03-28 03:46:00,27.6,20.0,30.09,ENE,70,0.0,0.0,74,0.00,,,0.00,TxWx,2013-03-28 08:46:00,
2013-03-28 03:51:00,27.6,20.0,30.10,ENE,69,0.0,0.0,74,0.00,,,0.00,TxWx,2013-03-28 08:51:00,
2013-03-28 03:56:00,27.7,20.0,30.09,NNW,333,0.0,0.0,74,0.00,,,0.00,TxWx,2013-03-28 08:56:00,
2013-03-28 04:06:00,27.9,19.0,30.09,NNW,331,0.0,0.0,73,0.00,,,0.00,TxWx,2013-03-28 09:06:00,
2013-03-28 04:11:00,27.8,19.0,30.09,NW,321,0.0,0.0,73,0.00,,,0.00,TxWx,2013-03-28 09:11:00,
2013-03-28 04:21:00,28.0,19.0,30.09,NW,323,0.0,0.0,73,0.00,,,0.00,TxWx,2013-03-28 09:21:00,
2013-03-28 04:26:00,27.9,19.0,30.09,NW,321,0.0,0.0,73,0.00,,,0.00,TxWx,2013-03-28 09:26:00,
2013-03-28 04:36:00,28.3,19.0,30.09,NW,317,0.0,0.0,72,0.00,,,0.00,TxWx,2013-03-28 09:36:00,
2013-03-28 04:41:00,28.3,19.0,30.10,NW,322,0.0,0.0,72,0.00,,,0.00,TxWx,2013-03-28 09:41:00,
2013-03-28 04:46:00,28.4,19.0,30.10,NW,322,0.0,0.0,72,0.00,,,0.00,TxWx,2013-03-28 09:46:00,
2013-03-28 04:51:00,27.9,19.0,30.10,NW,319,0.0,0.0,72,0.00,,,0.00,TxWx,2013-03-28 09:51:00,
2013-03-28 04:56:00,28.0,19.0,30.10,NW,316,0.0,0.0,73,0.00,,,0.00,TxWx,2013-03-28 09:56:00,
2013-03-28 05:01:00,28.0,19.0,30.10,NW,314,0.0,0.0,73,0.00,,,0.00,TxWx,2013-03-28 10:01:00,
2013-03-28 05:06:00,28.4,19.0,30.10,NW,324,0.0,0.0,72,0.00,,,0.00,TxWx,2013-03-28 10:06:00,
2013-03-28 05:11:00,28.9,20.0,30.10,NW,321,0.0,0.0,71,0.00,,,0.00,TxWx,2013-03-28 10:11:00,
2013-03-28 05:21:00,29.6,20.0,30.10,NNW,333,0.0,0.0,69,0.00,,,0.00,TxWx,2013-03-28 10:21:00,
2013-03-28 05:31:00,30.0,20.0,30.10,NW,324,0.0,0.0,68,0.00,,,0.00,TxWx,2013-03-28 10:31:00,
2013-03-28 05:36:00,30.2,19.0,30.10,NW,318,0.0,0.0,67,0.00,,,0.00,TxWx,2013-03-28 10:36:00,
2013-03-28 05:41:00,30.7,20.0,30.10,NW,318,0.0,0.0,66,0.00,,,0.00,TxWx,2013-03-28 10:41:00,
2013-03-28 05:46:00,30.1,19.0,30.10,NW,318,0.0,0.0,67,0.00,,,0.00,TxWx,2013-03-28 10:46:00,
2013-03-28 05:51:00,30.1,19.0,30.09,NW,318,0.0,0.0,67,0.00,,,0.00,TxWx,2013-03-28 10:51:00,
2013-03-28 05:57:00,29.7,19.0,30.10,SW,225,0.0,0.0,67,0.00,,,0.00,TxWx,2013-03-28 10:57:00,
2013-03-28 06:06:00,29.9,20.0,30.10,NW,323,0.0,0.0,69,0.00,,,0.00,TxWx,2013-03-28 11:06:00,
2013-03-28 06:11:00,30.0,20.0,30.10,NW,321,0.0,0.0,68,0.00,,,0.00,TxWx,2013-03-28 11:11:00,
2013-03-28 06:21:00,30.0,20.0,30.10,NW,323,0.0,0.0,69,0.00,,,0.00,TxWx,2013-03-28 11:21:00,
2013-03-28 06:26:00,30.0,20.0,30.10,ENE,60,0.0,0.0,69,0.00,,,0.00,TxWx,2013-03-28 11:26:00,
2013-03-28 06:32:00,30.0,20.0,30.10,NNW,328,0.0,0.0,69,0.00,,,0.00,TxWx,2013-03-28 11:32:00,
2013-03-28 06:41:00,30.3,20.0,30.11,South,191,0.0,0.0,69,0.00,,,0.00,TxWx,2013-03-28 11:41:00,
2013-03-28 06:46:00,30.3,20.0,30.11,NW,316,0.0,0.0,69,0.00,,,0.00,TxWx,2013-03-28 11:46:00,
2013-03-28 06:51:00,30.5,21.0,30.11,NW,315,0.0,0.0,69,0.00,,,0.00,TxWx,2013-03-28 11:51:00,
2013-03-28 06:56:00,30.6,21.0,30.11,NW,318,0.0,0.0,69,0.00,,,0.00,TxWx,2013-03-28 11:56:00,
2013-03-28 07:01:00,30.7,21.0,30.11,NNW,328,0.0,0.0,69,0.00,,,0.00,TxWx,2013-03-28 12:01:00,
2013-03-28 07:06:00,30.8,21.0,30.11,West,272,0.0,0.0,69,0.00,,,0.00,TxWx,2013-03-28 12:06:00,
2013-03-28 07:11:00,31.0,21.0,30.11,NW,318,0.0,0.0,68,0.00,,,0.00,TxWx,2013-03-28 12:11:00,
2013-03-28 07:21:00,31.6,21.0,30.11,WNW,290,0.0,0.0,67,0.00,,,0.00,TxWx,2013-03-28 12:21:00,
2013-03-28 07:26:00,32.0,21.0,30.11,ENE,64,0.0,0.0,67,0.00,,,0.00,TxWx,2013-03-28 12:26:00,
2013-03-28 07:31:00,32.3,21.0,30.11,ENE,64,0.0,0.0,66,0.00,,,0.00,TxWx,2013-03-28 12:31:00,
2013-03-28 07:37:00,32.4,21.0,30.11,NW,324,0.0,0.0,65,0.00,,,0.00,TxWx,2013-03-28 12:37:00,
2013-03-28 07:46:00,32.9,21.0,30.11,NW,317,0.0,0.0,65,0.00,,,0.00,TxWx,2013-03-28 12:46:00,
2013-03-28 07:51:00,33.1,21.0,30.11,NW,315,0.0,0.0,64,0.00,,,0.00,TxWx,2013-03-28 12:51:00,
2013-03-28 07:56:00,33.3,21.0,30.11,SSW,209,0.0,0.0,64,0.00,,,0.00,TxWx,2013-03-28 12:56:00,
2013-03-28 08:06:00,33.8,22.0,30.12,ENE,64,0.0,0.0,63,0.00,,,0.00,TxWx,2013-03-28 13:06:00,
2013-03-28 08:11:00,34.2,21.0,30.12,ENE,64,0.0,0.0,62,0.00,,,0.00,TxWx,2013-03-28 13:11:00,
2013-03-28 08:17:00,34.6,22.0,30.11,NW,320,0.0,0.0,62,0.00,,,0.00,TxWx,2013-03-28 13:17:00,
2013-03-28 08:26:00,35.1,21.0,30.11,NW,315,0.0,0.0,60,0.00,,,0.00,TxWx,2013-03-28 13:26:00,
2013-03-28 08:31:00,35.6,22.0,30.12,NW,316,0.0,0.0,60,0.00,,,0.00,TxWx,2013-03-28 13:31:00,
2013-03-28 08:41:00,36.0,21.0,30.11,NW,316,0.0,0.0,56,0.00,,,0.00,TxWx,2013-03-28 13:41:00,
2013-03-28 08:46:00,36.4,21.0,30.11,NNW,344,0.0,0.0,56,0.00,,,0.00,TxWx,2013-03-28 13:46:00,
2013-03-28 08:51:00,36.6,21.0,30.11,NNW,334,0.0,0.0,54,0.00,,,0.00,TxWx,2013-03-28 13:51:00,
2013-03-28 08:56:00,36.9,20.0,30.11,NNW,327,0.0,0.0,53,0.00,,,0.00,TxWx,2013-03-28 13:56:00,
2013-03-28 09:01:00,37.0,20.0,30.11,NNW,342,0.0,0.0,52,0.00,,,0.00,TxWx,2013-03-28 14:01:00,
2013-03-28 09:06:00,37.2,20.0,30.12,NNW,343,0.0,0.0,53,0.00,,,0.00,TxWx,2013-03-28 14:06:00,
2013-03-28 09:12:00,37.4,20.0,30.12,NNW,346,0.0,0.0,53,0.00,,,0.00,TxWx,2013-03-28 14:12:00,
2013-03-28 09:21:00,37.9,22.0,30.12,NNW,331,0.0,0.0,54,0.00,,,0.00,TxWx,2013-03-28 14:21:00,
2013-03-28 09:26:00,38.0,21.0,30.12,NNW,343,0.0,0.0,52,0.00,,,0.00,TxWx,2013-03-28 14:26:00,
2013-03-28 09:31:00,38.1,21.0,30.12,NNW,332,0.0,0.0,52,0.00,,,0.00,TxWx,2013-03-28 14:31:00,
2013-03-28 09:36:00,38.5,21.0,30.12,NW,325,0.0,0.0,52,0.00,,,0.00,TxWx,2013-03-28 14:36:00,
2013-03-28 09:41:00,38.9,21.0,30.12,NNW,333,0.0,0.0,51,0.00,,,0.00,TxWx,2013-03-28 14:41:00,
2013-03-28 09:51:00,39.3,20.0,30.12,NW,322,0.0,0.0,49,0.00,,,0.00,TxWx,2013-03-28 14:51:00,
2013-03-28 10:01:00,39.9,21.0,30.12,NNW,340,0.0,0.0,48,0.00,,,0.00,TxWx,2013-03-28 15:01:00,
2013-03-28 10:06:00,39.4,19.0,30.12,ENE,66,0.0,0.0,47,0.00,,,0.00,TxWx,2013-03-28 15:06:00,
2013-03-28 10:12:00,39.8,20.0,30.12,NNW,332,0.0,0.0,47,0.00,,,0.00,TxWx,2013-03-28 15:12:00,
2013-03-28 10:21:00,40.9,19.0,30.12,North,358,0.0,0.0,44,0.00,,,0.00,TxWx,2013-03-28 15:21:00,
2013-03-28 10:26:00,40.8,18.0,30.12,NW,324,0.0,0.0,42,0.00,,,0.00,TxWx,2013-03-28 15:26:00,
2013-03-28 10:31:00,41.0,18.0,30.12,North,356,0.0,0.0,41,0.00,,,0.00,TxWx,2013-03-28 15:31:00,
2013-03-28 10:36:00,41.2,18.0,30.12,NNW,348,0.0,0.0,41,0.00,,,0.00,TxWx,2013-03-28 15:36:00,
2013-03-28 10:42:00,41.8,18.0,30.12,North,2,0.0,0.0,40,0.00,,,0.00,TxWx,2013-03-28 15:42:00,
2013-03-28 10:47:00,41.8,17.0,30.12,NW,325,0.0,0.0,38,0.00,,,0.00,TxWx,2013-03-28 15:47:00,
2013-03-28 10:52:00,41.5,17.0,30.12,NW,318,0.0,0.0,38,0.00,,,0.00,TxWx,2013-03-28 15:52:00,
2013-03-28 11:01:00,42.2,17.0,30.12,North,359,0.0,0.0,38,0.00,,,0.00,TxWx,2013-03-28 16:01:00,
2013-03-28 11:06:00,41.7,17.0,30.12,NW,314,0.0,0.0,37,0.00,,,0.00,TxWx,2013-03-28 16:06:00,
2013-03-28 11:11:00,42.1,16.0,30.12,NNW,332,0.0,0.0,37,0.00,,,0.00,TxWx,2013-03-28 16:11:00,
2013-03-28 11:16:00,41.6,16.0,30.12,ENE,64,0.0,0.0,37,0.00,,,0.00,TxWx,2013-03-28 16:16:00,
2013-03-28 11:21:00,42.2,17.0,30.12,NNW,339,0.0,0.0,37,0.00,,,0.00,TxWx,2013-03-28 16:21:00,
2013-03-28 11:31:00,42.7,17.0,30.12,NNW,332,0.0,0.0,36,0.00,,,0.00,TxWx,2013-03-28 16:31:00,
2013-03-28 11:36:00,42.3,16.0,30.12,NW,326,0.0,0.0,36,0.00,,,0.00,TxWx,2013-03-28 16:36:00,
2013-03-28 11:42:00,42.7,17.0,30.11,NNW,339,0.0,0.0,37,0.00,,,0.00,TxWx,2013-03-28 16:42:00,
2013-03-28 11:51:00,43.0,16.0,30.11,NW,313,0.0,0.0,35,0.00,,,0.00,TxWx,2013-03-28 16:51:00,
2013-03-28 11:56:00,43.3,16.0,30.11,NNW,348,0.0,0.0,34,0.00,,,0.00,TxWx,2013-03-28 16:56:00,
2013-03-28 12:06:00,42.4,15.0,30.11,NNW,332,0.0,0.0,34,0.00,,,0.00,TxWx,2013-03-28 17:06:00,
2013-03-28 12:11:00,43.0,16.0,30.11,North,357,0.0,0.0,35,0.00,,,0.00,TxWx,2013-03-28 17:11:00,
2013-03-28 12:16:00,43.6,18.0,30.11,North,350,0.0,0.0,36,0.00,,,0.00,TxWx,2013-03-28 17:16:00,
2013-03-28 12:26:00,43.5,17.0,30.11,North,353,0.0,0.0,35,0.00,,,0.00,TxWx,2013-03-28 17:26:00,
2013-03-28 12:31:00,43.4,14.0,30.11,NW,315,0.0,0.0,32,0.00,,,0.00,TxWx,2013-03-28 17:31:00,
2013-03-28 12:41:00,43.6,16.0,30.10,NNW,328,0.0,0.0,34,0.00,,,0.00,TxWx,2013-03-28 17:41:00,
2013-03-28 12:46:00,43.7,16.0,30.10,North,354,0.0,0.0,34,0.00,,,0.00,TxWx,2013-03-28 17:46:00,
2013-03-28 12:51:00,43.2,15.0,30.11,ENE,65,0.0,0.0,33,0.00,,,0.00,TxWx,2013-03-28 17:51:00,
2013-03-28 12:56:00,43.4,15.0,30.10,NW,323,0.0,0.0,33,0.00,,,0.00,TxWx,2013-03-28 17:56:00,
2013-03-28 13:06:00,44.2,15.0,30.11,NNW,333,0.0,0.0,33,0.00,,,0.00,TxWx,2013-03-28 18:06:00,
2013-03-28 13:11:00,42.7,14.0,30.11,ENE,68,0.0,0.0,32,0.00,,,0.00,TxWx,2013-03-28 18:11:00,
2013-03-28 13:21:00,44.1,16.0,30.10,NNW,329,0.0,0.0,34,0.00,,,0.00,TxWx,2013-03-28 18:21:00,
2013-03-28 13:26:00,44.2,15.0,30.10,ENE,68,0.0,0.0,32,0.00,,,0.00,TxWx,2013-03-28 18:26:00,
2013-03-28 13:31:00,43.2,14.0,30.10,NNW,339,0.0,0.0,32,0.00,,,0.00,TxWx,2013-03-28 18:31:00,
2013-03-28 13:36:00,43.2,14.0,30.11,NNW,328,0.0,0.0,32,0.00,,,0.00,TxWx,2013-03-28 18:36:00,
2013-03-28 13:41:00,44.1,16.0,30.10,NNW,335,0.0,0.0,33,0.00,,,0.00,TxWx,2013-03-28 18:41:00,
2013-03-28 13:46:00,43.9,15.0,30.10,NNE,15,0.0,0.0,32,0.00,,,0.00,TxWx,2013-03-28 18:46:00,
2013-03-28 13:57:00,44.6,15.0,30.10,NNW,343,0.0,0.0,31,0.00,,,0.00,TxWx,2013-03-28 18:57:00,
2013-03-28 14:06:00,44.7,16.0,30.10,NNW,341,0.0,0.0,32,0.00,,,0.00,TxWx,2013-03-28 19:06:00,
2013-03-28 14:11:00,44.0,14.0,30.10,NNW,340,0.0,0.0,31,0.00,,,0.00,TxWx,2013-03-28 19:11:00,
2013-03-28 14:16:00,44.0,14.0,30.10,NNW,336,0.0,0.0,31,0.00,,,0.00,TxWx,2013-03-28 19:16:00,
2013-03-28 14:27:00,44.3,15.0,30.09,ENE,71,0.0,0.0,32,0.00,,,0.00,TxWx,2013-03-28 19:27:00,
2013-03-28 14:36:00,44.7,16.0,30.09,NW,321,0.0,0.0,32,0.00,,,0.00,TxWx,2013-03-28 19:36:00,
2013-03-28 14:41:00,45.0,16.0,30.09,NW,323,0.0,0.0,32,0.00,,,0.00,TxWx,2013-03-28 19:41:00,
2013-03-28 14:46:00,45.1,15.0,30.09,ENE,72,0.0,0.0,31,0.00,,,0.00,TxWx,2013-03-28 19:46:00,
2013-03-28 14:51:00,45.4,14.0,30.09,NNW,338,0.0,0.0,30,0.00,,,0.00,TxWx,2013-03-28 19:51:00,
2013-03-28 14:57:00,44.4,14.0,30.09,NW,323,0.0,0.0,31,0.00,,,0.00,TxWx,2013-03-28 19:57:00,
2013-03-28 15:02:00,45.4,15.0,30.08,NNW,336,0.0,0.0,31,0.00,,,0.00,TxWx,2013-03-28 20:02:00,
2013-03-28 15:07:00,45.0,16.0,30.08,NW,316,0.0,0.0,32,0.00,,,0.00,TxWx,2013-03-28 20:07:00,
2013-03-28 15:12:00,45.7,17.0,30.08,NNW,347,0.0,0.0,32,0.00,,,0.00,TxWx,2013-03-28 20:12:00,
2013-03-28 15:17:00,45.2,14.0,30.08,North,351,0.0,0.0,30,0.00,,,0.00,TxWx,2013-03-28 20:17:00,
2013-03-28 15:26:00,45.8,16.0,30.08,NNE,17,0.0,0.0,31,0.00,,,0.00,TxWx,2013-03-28 20:26:00,
2013-03-28 15:31:00,44.9,15.0,30.08,NW,320,0.0,0.0,31,0.00,,,0.00,TxWx,2013-03-28 20:31:00,
2013-03-28 15:36:00,46.2,17.0,30.08,North,4,0.0,0.0,33,0.00,,,0.00,TxWx,2013-03-28 20:36:00,
2013-03-28 15:46:00,45.4,15.0,30.08,NNW,331,0.0,0.0,31,0.00,,,0.00,TxWx,2013-03-28 20:46:00,
2013-03-28 15:56:00,46.3,17.0,30.07,North,351,0.0,0.0,32,0.00,,,0.00,TxWx,2013-03-28 20:56:00,
2013-03-28 16:01:00,46.0,16.0,30.08,NNW,333,0.0,0.0,31,0.00,,,0.00,TxWx,2013-03-28 21:01:00,
2013-03-28 16:06:00,45.4,16.0,30.08,NNW,331,0.0,0.0,32,0.00,,,0.00,TxWx,2013-03-28 21:06:00,
2013-03-28 16:16:00,46.4,16.0,30.07,North,356,0.0,0.0,31,0.00,,,0.00,TxWx,2013-03-28 21:16:00,
2013-03-28 16:21:00,45.5,16.0,30.07,NNW,335,0.0,0.0,31,0.00,,,0.00,TxWx,2013-03-28 21:21:00,
2013-03-28 16:26:00,45.9,17.0,30.07,NW,320,0.0,0.0,32,0.00,,,0.00,TxWx,2013-03-28 21:26:00,
2013-03-28 16:37:00,46.0,17.0,30.07,NW,325,0.0,0.0,32,0.00,,,0.00,TxWx,2013-03-28 21:37:00,
2013-03-28 16:42:00,46.1,16.0,30.07,NNW,334,0.0,0.0,31,0.00,,,0.00,TxWx,2013-03-28 21:42:00,
2013-03-28 16:47:00,46.1,16.0,30.07,North,5,0.0,0.0,32,0.00,,,0.00,TxWx,2013-03-28 21:47:00,
2013-03-28 16:56:00,46.3,16.0,30.07,North,352,0.0,0.0,32,0.00,,,0.00,TxWx,2013-03-28 21:56:00,
2013-03-28 17:02:00,46.4,16.0,30.06,North,2,0.0,0.0,32,0.00,,,0.00,TxWx,2013-03-28 22:02:00,
2013-03-28 17:08:00,46.2,15.0,30.07,North,356,0.0,0.0,30,0.00,,,0.00,TxWx,2013-03-28 22:08:00,
2013-03-28 17:13:00,45.9,16.0,30.07,North,354,0.0,0.0,31,0.00,,,0.00,TxWx,2013-03-28 22:13:00,
2013-03-28 17:18:00,46.1,16.0,30.06,NNE,14,0.0,0.0,32,0.00,,,0.00,TxWx,2013-03-28 22:18:00,
2013-03-28 17:26:00,45.4,16.0,30.06,North,8,0.0,0.0,32,0.00,,,0.00,TxWx,2013-03-28 22:26:00,
2013-03-28 17:31:00,45.3,16.0,30.06,NNE,18,0.0,0.0,32,0.00,,,0.00,TxWx,2013-03-28 22:31:00,
2013-03-28 17:36:00,45.7,16.0,30.06,NW,317,0.0,0.0,32,0.00,,,0.00,TxWx,2013-03-28 22:36:00,
2013-03-28 17:42:00,45.5,16.0,30.06,NNW,337,0.0,0.0,32,0.00,,,0.00,TxWx,2013-03-28 22:42:00,
2013-03-28 17:51:00,45.1,16.0,30.06,NNE,15,0.0,0.0,32,0.00,,,0.00,TxWx,2013-03-28 22:51:00,
2013-03-28 17:56:00,45.0,16.0,30.06,North,8,0.0,0.0,33,0.00,,,0.00,TxWx,2013-03-28 22:56:00,
2013-03-28 18:01:00,45.1,17.0,30.06,North,5,0.0,0.0,33,0.00,,,0.00,TxWx,2013-03-28 23:01:00,
2013-03-28 18:07:00,45.2,16.0,30.06,North,349,0.0,0.0,32,0.00,,,0.00,TxWx,2013-03-28 23:07:00,
2013-03-28 18:16:00,44.5,15.0,30.06,North,355,0.0,0.0,33,0.00,,,0.00,TxWx,2013-03-28 23:16:00,
2013-03-28 18:21:00,44.6,17.0,30.06,North,359,0.0,0.0,33,0.00,,,0.00,TxWx,2013-03-28 23:21:00,
2013-03-28 18:26:00,44.3,16.0,30.06,NNE,20,0.0,0.0,33,0.00,,,0.00,TxWx,2013-03-28 23:26:00,
2013-03-28 18:36:00,44.1,16.0,30.06,North,356,0.0,0.0,34,0.00,,,0.00,TxWx,2013-03-28 23:36:00,
2013-03-28 18:41:00,43.9,16.0,30.06,North,355,0.0,0.0,33,0.00,,,0.00,TxWx,2013-03-28 23:41:00,
2013-03-28 18:46:00,43.5,16.0,30.06,NNE,27,0.0,0.0,34,0.00,,,0.00,TxWx,2013-03-28 23:46:00,
2013-03-28 18:51:00,43.3,15.0,30.06,North,353,0.0,0.0,34,0.00,,,0.00,TxWx,2013-03-28 23:51:00,
2013-03-28 18:57:00,43.0,16.0,30.07,North,1,0.0,0.0,35,0.00,,,0.00,TxWx,2013-03-28 23:57:00,
2013-03-28 19:06:00,42.5,16.0,30.07,North,356,0.0,0.0,35,0.00,,,0.00,TxWx,2013-03-29 00:06:00,
2013-03-28 19:16:00,42.1,16.0,30.07,North,4,0.0,0.0,36,0.00,,,0.00,TxWx,2013-03-29 00:16:00,
2013-03-28 19:21:00,41.9,16.0,30.07,North,3,0.0,0.0,37,0.00,,,0.00,TxWx,2013-03-29 00:21:00,
2013-03-28 19:26:00,41.8,16.0,30.07,North,359,0.0,0.0,37,0.00,,,0.00,TxWx,2013-03-29 00:26:00,
2013-03-28 19:31:00,41.5,16.0,30.07,North,356,0.0,0.0,37,0.00,,,0.00,TxWx,2013-03-29 00:31:00,
2013-03-28 19:36:00,41.3,16.0,30.07,North,0,0.0,0.0,37,0.00,,,0.00,TxWx,2013-03-29 00:36:00,
2013-03-28 19:41:00,41.2,16.0,30.07,North,360,0.0,0.0,38,0.00,,,0.00,TxWx,2013-03-29 00:41:00,
2013-03-28 19:47:00,40.9,16.0,30.07,North,11,0.0,0.0,38,0.00,,,0.00,TxWx,2013-03-29 00:47:00,
2013-03-28 19:52:00,40.7,16.0,30.07,NNE,18,0.0,0.0,38,0.00,,,0.00,TxWx,2013-03-29 00:52:00,
2013-03-28 19:57:00,40.6,16.0,30.07,North,11,0.0,0.0,38,0.00,,,0.00,TxWx,2013-03-29 00:57:00,
2013-03-28 20:06:00,40.3,16.0,30.07,North,0,0.0,0.0,39,0.00,,,0.00,TxWx,2013-03-29 01:06:00,
2013-03-28 20:11:00,40.1,16.0,30.07,North,357,0.0,0.0,40,0.00,,,0.00,TxWx,2013-03-29 01:11:00,
2013-03-28 20:21:00,39.6,17.0,30.08,North,5,0.0,0.0,41,0.00,,,0.00,TxWx,2013-03-29 01:21:00,
2013-03-28 20:26:00,39.2,16.0,30.08,North,5,0.0,0.0,41,0.00,,,0.00,TxWx,2013-03-29 01:26:00,
2013-03-28 20:32:00,39.0,17.0,30.08,North,5,0.0,0.0,43,0.00,,,0.00,TxWx,2013-03-29 01:32:00,
2013-03-28 20:41:00,38.4,16.0,30.08,North,5,0.0,0.0,43,0.00,,,0.00,TxWx,2013-03-29 01:41:00,
2013-03-28 20:51:00,37.7,18.0,30.08,North,355,0.0,0.0,45,0.00,,,0.00,TxWx,2013-03-29 01:51:00,
2013-03-28 20:56:00,37.4,17.0,30.08,North,355,0.0,0.0,46,0.00,,,0.00,TxWx,2013-03-29 01:56:00,
2013-03-28 21:03:00,37.1,18.0,30.09,North,355,0.0,0.0,47,0.00,,,0.00,TxWx,2013-03-29 02:03:00,
2013-03-28 21:11:00,36.7,19.0,30.09,North,355,0.0,0.0,49,0.00,,,0.00,TxWx,2013-03-29 02:11:00,
2013-03-28 21:16:00,36.4,18.0,30.09,North,355,0.0,0.0,51,0.00,,,0.00,TxWx,2013-03-29 02:16:00,
2013-03-28 21:26:00,36.1,18.0,30.09,North,355,0.0,0.0,51,0.00,,,0.00,TxWx,2013-03-29 02:26:00,
2013-03-28 21:31:00,36.0,19.0,30.09,NNW,345,0.0,0.0,51,0.00,,,0.00,TxWx,2013-03-29 02:31:00,
2013-03-28 21:36:00,35.9,19.0,30.09,NW,317,0.0,0.0,52,0.00,,,0.00,TxWx,2013-03-29 02:36:00,
2013-03-28 21:41:00,35.8,19.0,30.09,NW,320,0.0,0.0,52,0.00,,,0.00,TxWx,2013-03-29 02:41:00,
2013-03-28 21:47:00,35.7,20.0,30.09,NW,320,0.0,0.0,53,0.00,,,0.00,TxWx,2013-03-29 02:47:00,
2013-03-28 21:52:00,35.4,19.0,30.09,NW,319,0.0,0.0,54,0.00,,,0.00,TxWx,2013-03-29 02:52:00,
2013-03-28 22:01:00,35.3,19.0,30.09,ENE,65,0.0,0.0,54,0.00,,,0.00,TxWx,2013-03-29 03:01:00,
2013-03-28 22:07:00,35.1,19.0,30.09,ENE,65,0.0,0.0,53,0.00,,,0.00,TxWx,2013-03-29 03:07:00,
2013-03-28 22:12:00,34.7,19.0,30.09,NE,50,0.0,0.0,53,0.00,,,0.00,TxWx,2013-03-29 03:12:00,
2013-03-28 22:21:00,34.5,19.0,30.09,NE,56,0.0,0.0,53,0.00,,,0.00,TxWx,2013-03-29 03:21:00,
2013-03-28 22:31:00,34.0,18.0,30.09,ENE,60,0.0,0.0,54,0.00,,,0.00,TxWx,2013-03-29 03:31:00,
2013-03-28 22:36:00,33.8,19.0,30.09,ENE,63,0.0,0.0,56,0.00,,,0.00,TxWx,2013-03-29 03:36:00,
2013-03-28 22:41:00,33.8,18.0,30.09,ENE,65,0.0,0.0,55,0.00,,,0.00,TxWx,2013-03-29 03:41:00,
2013-03-28 22:51:00,33.6,19.0,30.09,ENE,57,0.0,0.0,56,0.00,,,0.00,TxWx,2013-03-29 03:51:00,
2013-03-28 22:56:00,33.5,18.0,30.09,NE,56,0.0,0.0,55,0.00,,,0.00,TxWx,2013-03-29 03:56:00,
2013-03-28 23:00:00,33.4,18.0,30.09,NE,56,0.0,0.0,55,0.00,,,0.00,TxWx,2013-03-29 04:00:00,
2013-03-28 23:01:00,33.4,18.0,30.09,NE,56,0.0,0.0,56,0.00,,,0.00,TxWx,2013-03-29 04:01:00,
2013-03-28 23:03:00,33.2,18.0,30.09,NE,56,0.0,0.0,57,0.00,,,0.00,TxWx,2013-03-29 04:03:00,
2013-03-28 23:08:00,33.5,18.0,30.09,ENE,59,0.0,0.0,56,0.00,,,0.00,TxWx,2013-03-29 04:08:00,
2013-03-28 23:13:00,33.6,19.0,30.09,ENE,59,0.0,0.0,56,0.00,,,0.00,TxWx,2013-03-29 04:13:00,
2013-03-28 23:20:00,33.2,19.0,30.09,NNW,347,0.0,0.0,59,0.00,,,0.00,TxWx,2013-03-29 04:20:00,
2013-03-28 23:25:00,32.8,20.0,30.09,NNW,337,0.0,0.0,60,0.00,,,0.00,TxWx,2013-03-29 04:25:00,
2013-03-28 23:31:00,32.7,19.0,30.09,NNW,338,0.0,0.0,60,0.00,,,0.00,TxWx,2013-03-29 04:31:00,
2013-03-28 23:37:00,32.7,19.0,30.09,NNW,341,0.0,0.0,60,0.00,,,0.00,TxWx,2013-03-29 04:37:00,
2013-03-28 23:46:00,32.4,19.0,30.09,NNW,341,0.0,0.0,62,0.00,,,0.00,TxWx,2013-03-29 04:46:00,
2013-03-28 23:51:00,32.2,20.0,30.09,NNW,342,0.0,0.0,63,0.00,,,0.00,TxWx,2013-03-29 04:51:00,
2013-03-28 23:56:00,32.0,20.0,30.09,NNW,343,0.0,0.0,63,0.00,,,0.00,TxWx,2013-03-29 04:56:00,